Terminal Aerodrome Forecast
Issued by NWS

Home | Current Version | Previous Version | Text Only | Print | Product List | Glossary On
Versions: 1 2 3 4 5 6 7 8 9 10 11 12 13 14
000
FTUS45 KABQ 021720
TAFAEG
TAF
KAEG 021720Z 0218/0318 04008KT P6SM SCT100
     FM022200 04011KT P6SM VCSH SCT060 BKN100
      TEMPO 0300/0303 VRB20G30KT 6SM -TSRA BKN060CB
     FM030300 12012G22KT P6SM VCSH SCT025 BKN060
     FM030500 36006KT P6SM BKN090=

USA.gov is the U.S. government's official web portal to all federal, state and local government web resources and services.